time, Switch, Flow(0), Analog(2)
yyyy/mm/dd HH:MM:SS.fff, True=FILTERED|False=TOTAL, L/min, V
2023/06/21 10:00:02.401, True, 4.649, 0.124437
2023/06/21 10:00:02.897, True, 4.375, 0.127565
2023/06/21 10:00:03.402, True, 4.310, 0.124590
2023/06/21 10:00:03.905, True, 3.649, 0.125277
2023/06/21 10:00:04.402, True, 2.360, 0.123903
2023/06/21 10:00:04.906, True, 1.986, 0.125963
2023/06/21 10:00:05.410, True, 1.327, 0.123522
2023/06/21 10:00:05.906, True, 1.687, 0.123217
2023/06/21 10:00:06.410, True, 1.325, 0.123369
2023/06/21 10:00:06.914, True, 1.656, 0.125048
2023/06/21 10:00:07.417, True, 1.658, 0.123674
2023/06/21 10:00:07.914, True, 1.685, 0.126650
2023/06/21 10:00:08.417, True, 1.328, 0.125734
2023/06/21 10:00:08.922, True, 1.656, 0.125734
2023/06/21 10:00:09.418, True, 1.685, 0.124437
2023/06/21 10:00:09.922, True, 1.658, 0.126345
2023/06/21 10:00:10.426, True, 1.658, 0.124437
2023/06/21 10:00:10.922, True, 1.348, 0.126345
2023/06/21 10:00:11.426, True, 1.658, 0.125048
2023/06/21 10:00:11.922, True, 1.685, 0.124895
2023/06/21 10:00:12.426, True, 1.658, 0.127794
2023/06/21 10:00:12.930, True, 1.658, 0.125963
2023/06/21 10:00:13.426, True, 1.685, 0.124971
2023/06/21 10:00:13.930, True, 1.326, 0.124666
2023/06/21 10:00:14.434, True, 1.658, 0.123980
2023/06/21 10:00:14.930, True, 1.348, 0.123522
2023/06/21 10:00:15.434, True, 1.658, 0.125429
2023/06/21 10:00:15.938, True, 1.658, 0.126192
2023/06/21 10:00:16.434, True, 1.685, 0.124208
2023/06/21 10:00:16.938, True, 1.658, 0.127413
2023/06/21 10:00:17.442, True, 1.660, 0.125963
2023/06/21 10:00:17.938, True, 1.683, 0.124514
2023/06/21 10:00:18.442, True, 1.659, 0.126192
2023/06/21 10:00:18.946, True, 1.326, 0.124819
2023/06/21 10:00:19.442, True, 1.684, 0.124590
2023/06/21 10:00:19.945, True, 1.658, 0.127947
2023/06/21 10:00:20.450, True, 1.659, 0.126192
2023/06/21 10:00:20.946, True, 1.348, 0.126040
2023/06/21 10:00:21.450, True, 1.657, 0.126192
2023/06/21 10:00:21.945, True, 1.685, 0.127794
2023/06/21 10:00:22.450, True, 1.658, 0.124285
2023/06/21 10:00:22.954, True, 1.660, 0.126116
2023/06/21 10:00:23.458, True, 1.656, 0.124743
2023/06/21 10:00:23.954, True, 1.685, 0.125734
2023/06/21 10:00:24.458, True, 1.658, 0.125277
2023/06/21 10:00:24.954, True, 1.348, 0.126040
2023/06/21 10:00:25.458, True, 1.658, 0.123751
2023/06/21 10:00:25.962, True, 1.658, 0.126268
2023/06/21 10:00:26.458, True, 1.685, 0.123903
2023/06/21 10:00:26.962, True, 1.658, 0.124208
2023/06/21 10:00:27.466, True, 1.659, 0.126802
2023/06/21 10:00:27.962, True, 1.684, 0.125658
2023/06/21 10:00:28.466, True, 1.658, 0.127718
2023/06/21 10:00:28.962, True, 1.685, 0.127260
2023/06/21 10:00:29.466, True, 1.326, 0.125887
2023/06/21 10:00:29.970, True, 1.658, 0.125048
2023/06/21 10:00:30.466, True, 1.348, 0.125505
2023/06/21 10:00:30.970, True, 1.658, 0.127794
2023/06/21 10:00:31.474, True, 1.658, 0.126955
2023/06/21 10:00:31.969, True, 1.684, 0.125353
2023/06/21 10:00:32.474, True, 1.658, 0.125811
2023/06/21 10:00:32.978, True, 1.659, 0.124971
2023/06/21 10:00:33.474, True, 1.347, 0.125505
2023/06/21 10:00:33.978, True, 1.658, 0.125505
2023/06/21 10:00:34.482, True, 1.658, 0.126116
2023/06/21 10:00:34.978, True, 1.685, 0.127108
2023/06/21 10:00:35.481, True, 1.661, 0.125505
2023/06/21 10:00:35.986, True, 1.326, 0.124971
2023/06/21 10:00:36.482, True, 1.682, 0.126268
2023/06/21 10:00:36.986, True, 1.660, 0.124819
2023/06/21 10:00:37.489, True, 1.658, 0.127947
2023/06/21 10:00:37.994, True, 1.657, 0.124590
2023/06/21 10:00:38.490, True, 1.348, 0.126879
2023/06/21 10:00:38.994, True, 1.658, 0.125124
2023/06/21 10:00:39.497, True, 1.659, 0.127794
2023/06/21 10:00:39.994, True, 1.684, 0.126040
2023/06/21 10:00:40.498, True, 1.658, 0.126650
2023/06/21 10:00:41.001, True, 1.326, 0.127718
2023/06/21 10:00:41.498, True, 1.349, 0.127031
2023/06/21 10:00:42.002, True, 1.326, 0.127565
2023/06/21 10:00:42.506, True, 1.658, 0.127718
2023/06/21 10:00:43.002, True, 1.348, 0.127642
2023/06/21 10:00:43.506, True, 1.658, 0.128405
2023/06/21 10:00:44.001, True, 1.685, 0.128328
2023/06/21 10:00:44.506, True, 1.658, 0.128023
2023/06/21 10:00:45.010, True, 1.658, 0.128634
2023/06/21 10:00:45.506, True, 1.685, 0.127794
2023/06/21 10:00:46.010, True, 1.326, 0.130388
2023/06/21 10:00:46.514, True, 1.658, 0.129625
2023/06/21 10:00:47.010, True, 1.685, 0.130694
2023/06/21 10:00:47.514, True, 1.659, 0.131838
2023/06/21 10:00:48.018, True, 1.658, 0.129931
2023/06/21 10:00:48.513, True, 1.350, 0.133059
2023/06/21 10:00:49.017, True, 1.659, 0.133211
2023/06/21 10:00:49.522, True, 1.654, 0.133135
2023/06/21 10:00:50.018, True, 1.348, 0.131304
2023/06/21 10:00:50.522, True, 1.658, 0.131075
2023/06/21 10:00:51.026, True, 1.659, 0.132677
2023/06/21 10:00:51.522, True, 1.684, 0.132830
2023/06/21 10:00:52.025, True, 1.658, 0.132906
2023/06/21 10:00:52.530, True, 1.658, 0.135729
2023/06/21 10:00:53.034, True, 1.660, 0.135119
2023/06/21 10:00:53.530, True, 1.685, 0.135424
2023/06/21 10:00:54.034, True, 1.657, 0.135882
2023/06/21 10:00:54.538, True, 1.657, 0.135348
2023/06/21 10:00:55.034, True, 1.687, 0.134737
2023/06/21 10:00:55.537, True, 1.656, 0.134966
2023/06/21 10:00:56.034, True, 1.685, 0.137865
2023/06/21 10:00:56.538, True, 1.657, 0.134661
2023/06/21 10:00:57.042, True, 1.658, 0.133593
2023/06/21 10:00:57.546, True, 1.658, 0.136110
2023/06/21 10:00:58.041, True, 1.685, 0.136339
2023/06/21 10:00:58.546, True, 1.326, 0.134890
2023/06/21 10:00:59.050, True, 1.658, 0.135882
2023/06/21 10:00:59.545, True, 1.685, 0.135119
2023/06/21 10:01:00.049, True, 1.660, 0.137102
2023/06/21 10:01:00.554, True, 1.657, 0.136950
2023/06/21 10:01:01.050, True, 1.684, 0.136110
2023/06/21 10:01:01.554, True, 1.657, 0.135958
2023/06/21 10:01:02.058, True, 1.658, 0.137407
2023/06/21 10:01:02.553, True, 1.348, 0.136645
2023/06/21 10:01:03.058, True, 1.658, 0.136568
2023/06/21 10:01:03.562, True, 1.659, 0.136797
2023/06/21 10:01:04.058, True, 1.687, 0.138628
2023/06/21 10:01:04.562, True, 1.655, 0.137636
2023/06/21 10:01:05.066, True, 1.658, 0.137102
2023/06/21 10:01:05.562, True, 1.685, 0.138628
2023/06/21 10:01:06.065, True, 1.658, 0.135805
2023/06/21 10:01:06.569, True, 1.658, 0.135882
2023/06/21 10:01:07.066, True, 1.348, 0.136263
2023/06/21 10:01:07.569, True, 1.658, 0.135653
2023/06/21 10:01:08.074, True, 1.658, 0.135348
2023/06/21 10:01:08.570, True, 1.348, 0.136110
2023/06/21 10:01:09.074, True, 1.658, 0.139544
2023/06/21 10:01:09.577, True, 1.658, 0.137560
2023/06/21 10:01:10.074, True, 1.348, 0.137636
2023/06/21 10:01:10.578, True, 1.658, 0.137636
2023/06/21 10:01:11.074, True, 1.685, 0.136950
2023/06/21 10:01:11.578, True, 1.327, 0.137713
2023/06/21 10:01:12.082, True, 1.658, 0.136797
2023/06/21 10:01:12.577, True, 1.685, 0.138247
2023/06/21 10:01:13.081, True, 1.658, 0.139162
2023/06/21 10:01:13.585, True, 1.327, 0.138933
2023/06/21 10:01:14.082, True, 1.685, 0.137636
2023/06/21 10:01:14.586, True, 1.658, 0.140688
2023/06/21 10:01:15.090, True, 1.326, 0.136339
2023/06/21 10:01:15.586, True, 1.685, 0.140230
2023/06/21 10:01:16.090, True, 1.658, 0.138628
2023/06/21 10:01:16.594, True, 1.658, 0.139925
2023/06/21 10:01:17.098, True, 1.326, 0.135882
2023/06/21 10:01:17.594, True, 1.685, 0.138705
2023/06/21 10:01:18.098, True, 1.657, 0.137560
2023/06/21 10:01:18.602, True, 1.326, 0.138399
2023/06/21 10:01:19.098, True, 1.688, 0.141070
2023/06/21 10:01:19.602, True, 1.655, 0.136645
2023/06/21 10:01:20.098, True, 1.688, 0.138705
2023/06/21 10:01:20.602, True, 1.655, 0.138323
2023/06/21 10:01:21.106, True, 1.658, 0.138094
2023/06/21 10:01:21.609, True, 1.659, 0.140993
2023/06/21 10:01:22.105, True, 1.686, 0.139239
2023/06/21 10:01:22.610, True, 1.327, 0.137102
2023/06/21 10:01:23.113, True, 1.656, 0.135882
2023/06/21 10:01:23.609, True, 1.685, 0.137865
2023/06/21 10:01:24.114, True, 1.657, 0.140536
2023/06/21 10:01:24.618, True, 1.658, 0.140154
2023/06/21 10:01:25.114, True, 1.685, 0.139391
2023/06/21 10:01:25.618, True, 1.658, 0.139086
2023/06/21 10:01:26.122, True, 1.326, 0.138170
2023/06/21 10:01:26.617, True, 1.685, 0.138781
2023/06/21 10:01:27.121, True, 1.329, 0.138476
2023/06/21 10:01:27.626, True, 1.657, 0.137255
2023/06/21 10:01:28.122, True, 1.683, 0.140002
2023/06/21 10:01:28.625, True, 1.658, 0.138247
2023/06/21 10:01:29.129, True, 1.328, 0.140383
2023/06/21 10:01:29.626, True, 1.683, 0.140612
2023/06/21 10:01:30.130, True, 1.659, 0.136187
2023/06/21 10:01:30.634, True, 1.657, 0.137636
2023/06/21 10:01:31.129, True, 1.348, 0.137331
2023/06/21 10:01:31.634, True, 1.661, 0.137789
2023/06/21 10:01:32.138, True, 1.655, 0.138628
2023/06/21 10:01:32.642, True, 1.660, 0.137407
2023/06/21 10:01:33.137, True, 1.348, 0.137789
2023/06/21 10:01:33.642, True, 1.656, 0.136721
2023/06/21 10:01:34.146, True, 1.658, 0.139239
2023/06/21 10:01:34.641, True, 1.688, 0.138857
2023/06/21 10:01:35.146, True, 1.657, 0.138323
2023/06/21 10:01:35.650, True, 1.656, 0.137026
2023/06/21 10:01:36.146, True, 1.687, 0.136797
2023/06/21 10:01:36.650, True, 1.659, 0.138323
2023/06/21 10:01:37.154, True, 1.658, 0.138476
2023/06/21 10:01:37.650, True, 1.682, 0.138781
2023/06/21 10:01:38.153, True, 1.326, 0.138247
2023/06/21 10:01:38.658, True, 1.658, 0.138476
2023/06/21 10:01:39.154, True, 1.685, 0.140841
2023/06/21 10:01:39.658, True, 1.658, 0.138170
2023/06/21 10:01:40.154, True, 1.685, 0.137407
2023/06/21 10:01:40.658, True, 1.326, 0.136721
2023/06/21 10:01:41.162, True, 1.658, 0.137560
2023/06/21 10:01:41.658, True, 1.684, 0.138094
2023/06/21 10:01:42.162, True, 1.328, 0.136263
2023/06/21 10:01:42.666, True, 1.656, 0.137560
2023/06/21 10:01:43.162, True, 1.687, 0.137636
2023/06/21 10:01:43.666, True, 1.657, 0.140154
2023/06/21 10:01:44.170, True, 1.656, 0.136797
2023/06/21 10:01:44.674, True, 1.327, 0.136721
2023/06/21 10:01:45.170, True, 1.685, 0.138476
2023/06/21 10:01:45.674, True, 1.659, 0.138552
2023/06/21 10:01:46.178, True, 1.657, 0.136568
2023/06/21 10:01:46.674, True, 1.684, 0.138170
2023/06/21 10:01:47.178, True, 1.658, 0.137942
2023/06/21 10:01:47.674, True, 1.348, 0.137179
2023/06/21 10:01:48.178, True, 1.658, 0.139620
2023/06/21 10:01:48.682, True, 1.658, 0.136721
2023/06/21 10:01:49.177, True, 1.685, 0.136797
2023/06/21 10:01:49.681, True, 1.658, 0.137484
2023/06/21 10:01:50.185, True, 1.658, 0.135958
2023/06/21 10:01:50.690, True, 1.327, 0.137026
2023/06/21 10:01:51.186, True, 1.685, 0.136339
2023/06/21 10:01:51.690, True, 1.657, 0.139239
2023/06/21 10:01:52.194, True, 1.661, 0.138705
2023/06/21 10:01:52.698, True, 1.656, 0.137331
2023/06/21 10:01:53.194, True, 1.685, 0.137636
2023/06/21 10:01:53.697, True, 1.661, 0.138170
2023/06/21 10:01:54.202, True, 1.656, 0.136721
2023/06/21 10:01:54.698, True, 1.684, 0.138170
2023/06/21 10:01:55.202, True, 1.326, 0.136339
2023/06/21 10:01:55.706, True, 1.658, 0.135882
2023/06/21 10:01:56.202, True, 1.685, 0.138018
2023/06/21 10:01:56.706, True, 1.659, 0.135805
2023/06/21 10:01:57.202, True, 1.684, 0.136797
2023/06/21 10:01:57.706, True, 1.658, 0.138247
2023/06/21 10:01:58.210, True, 1.328, 0.139239
2023/06/21 10:01:58.706, True, 1.683, 0.137636
2023/06/21 10:01:59.210, True, 1.660, 0.135042
2023/06/21 10:01:59.714, True, 1.655, 0.138399
2023/06/21 10:02:00.210, True, 1.685, 0.135424
2023/06/21 10:02:00.714, True, 1.658, 0.138476
2023/06/21 10:02:01.218, True, 1.659, 0.136797
2023/06/21 10:02:01.714, True, 1.346, 0.136721
2023/06/21 10:02:02.218, True, 1.658, 0.135805
2023/06/21 10:02:02.722, True, 1.658, 0.138170
2023/06/21 10:02:03.217, True, 1.686, 0.138094
2023/06/21 10:02:03.722, True, 1.657, 0.136416
2023/06/21 10:02:04.226, True, 1.658, 0.138781
2023/06/21 10:02:04.722, True, 1.348, 0.137407
2023/06/21 10:02:05.226, True, 1.658, 0.136492
2023/06/21 10:02:05.729, True, 1.658, 0.137789
2023/06/21 10:02:06.226, True, 1.684, 0.135653
2023/06/21 10:02:06.730, True, 1.658, 0.136721
2023/06/21 10:02:07.225, True, 1.685, 0.135119
2023/06/21 10:02:07.730, True, 1.659, 0.137789
2023/06/21 10:02:08.233, True, 1.326, 0.136873
2023/06/21 10:02:08.738, True, 1.658, 0.137636
2023/06/21 10:02:09.234, True, 1.685, 0.139162
2023/06/21 10:02:09.738, True, 1.658, 0.133669
2023/06/21 10:02:10.242, True, 1.658, 0.137179
2023/06/21 10:02:10.738, True, 1.685, 0.139773
2023/06/21 10:02:11.242, True, 1.658, 0.137407
2023/06/21 10:02:11.746, True, 1.327, 0.134966
2023/06/21 10:02:12.242, True, 1.684, 0.137179
2023/06/21 10:02:12.746, True, 1.658, 0.137942
2023/06/21 10:02:13.250, True, 1.660, 0.136492
2023/06/21 10:02:13.746, True, 1.682, 0.138552
2023/06/21 10:02:14.250, True, 1.327, 0.137636
2023/06/21 10:02:14.754, True, 1.989, 0.138170
2023/06/21 10:02:15.250, True, 1.348, 0.135042
2023/06/21 10:02:15.754, True, 1.657, 0.134737
2023/06/21 10:02:16.258, True, 1.660, 0.136263
2023/06/21 10:02:16.754, True, 1.347, 0.134890
2023/06/21 10:02:17.258, True, 1.658, 0.135729
2023/06/21 10:02:17.762, True, 1.327, 0.135500
2023/06/21 10:02:18.258, True, 1.686, 0.136568
2023/06/21 10:02:18.762, True, 1.658, 0.135882
2023/06/21 10:02:19.266, True, 1.326, 0.136721
2023/06/21 10:02:19.762, True, 1.685, 0.135119
2023/06/21 10:02:20.266, True, 1.660, 0.134203
2023/06/21 10:02:20.770, True, 1.656, 0.137026
2023/06/21 10:02:21.266, True, 1.350, 0.135729
2023/06/21 10:02:21.769, True, 1.656, 0.136416
2023/06/21 10:02:22.274, True, 1.658, 0.135653
2023/06/21 10:02:22.770, True, 1.685, 0.135653
2023/06/21 10:02:23.274, True, 1.661, 0.135729
2023/06/21 10:02:23.778, True, 1.655, 0.134813
2023/06/21 10:02:24.274, True, 1.348, 0.136568
2023/06/21 10:02:24.778, True, 1.658, 0.133364
2023/06/21 10:02:25.282, True, 1.658, 0.136034
2023/06/21 10:02:25.778, True, 1.684, 0.136339
2023/06/21 10:02:26.282, True, 1.658, 0.134966
2023/06/21 10:02:26.786, True, 1.658, 0.137713
2023/06/21 10:02:27.282, True, 1.685, 0.135500
2023/06/21 10:02:27.786, True, 1.327, 0.135805
2023/06/21 10:02:28.282, True, 1.685, 0.134661
2023/06/21 10:02:28.786, True, 1.658, 0.135195
2023/06/21 10:02:29.290, True, 1.658, 0.135119
2023/06/21 10:02:29.786, True, 1.685, 0.135119
2023/06/21 10:02:30.289, True, 1.326, 0.134279
2023/06/21 10:02:30.793, True, 1.658, 0.136492
2023/06/21 10:02:31.290, True, 1.686, 0.135042
2023/06/21 10:02:31.793, True, 1.656, 0.135424
2023/06/21 10:02:32.297, True, 1.658, 0.133898
2023/06/21 10:02:32.801, True, 1.658, 0.133974
2023/06/21 10:02:33.297, True, 1.685, 0.137407
2023/06/21 10:02:33.802, True, 1.659, 0.136110
2023/06/21 10:02:34.297, True, 1.685, 0.137942
2023/06/21 10:02:34.801, True, 1.657, 0.137102
2023/06/21 10:02:35.306, True, 1.660, 0.134508
2023/06/21 10:02:35.802, True, 1.683, 0.135653
2023/06/21 10:02:36.305, True, 1.657, 0.134966
2023/06/21 10:02:36.810, True, 1.327, 0.135042
2023/06/21 10:02:37.306, True, 1.684, 0.136645
2023/06/21 10:02:37.809, True, 1.658, 0.136873
2023/06/21 10:02:38.314, True, 1.658, 0.136110
2023/06/21 10:02:38.810, True, 1.686, 0.136568
2023/06/21 10:02:39.313, True, 1.656, 0.135119
2023/06/21 10:02:39.809, True, 1.685, 0.133745
2023/06/21 10:02:40.314, True, 1.660, 0.134813
2023/06/21 10:02:40.817, True, 1.656, 0.136645
2023/06/21 10:02:41.313, True, 1.348, 0.135042
2023/06/21 10:02:41.817, True, 1.659, 0.137179
2023/06/21 10:02:42.321, True, 1.656, 0.135348
2023/06/21 10:02:42.817, True, 1.685, 0.133059
2023/06/21 10:02:43.322, True, 1.658, 0.134813
2023/06/21 10:02:43.825, True, 1.326, 0.135119
2023/06/21 10:02:44.322, True, 1.687, 0.136492
2023/06/21 10:02:44.825, True, 1.656, 0.133898
2023/06/21 10:02:45.330, True, 1.658, 0.134432
2023/06/21 10:02:45.834, True, 1.659, 0.134661
2023/06/21 10:02:46.329, True, 1.347, 0.135424
2023/06/21 10:02:46.832, True, 1.658, 0.134585
2023/06/21 10:02:47.338, True, 1.658, 0.135348
2023/06/21 10:02:47.833, True, 1.684, 0.133974
2023/06/21 10:02:48.337, True, 1.326, 0.134051
2023/06/21 10:02:48.834, True, 1.685, 0.137636
2023/06/21 10:02:49.337, True, 1.327, 0.134813
2023/06/21 10:02:49.842, True, 1.658, 0.135042
2023/06/21 10:02:50.338, True, 1.685, 0.136034
2023/06/21 10:02:50.842, True, 1.326, 0.135882
2023/06/21 10:02:51.345, True, 1.658, 0.136187
2023/06/21 10:02:51.849, True, 1.659, 0.134813
2023/06/21 10:02:52.345, True, 1.685, 0.131456
2023/06/21 10:02:52.849, True, 1.658, 0.134432
2023/06/21 10:02:53.353, True, 1.657, 0.133593
2023/06/21 10:02:53.849, True, 1.685, 0.133669
2023/06/21 10:02:54.353, True, 1.658, 0.133898
2023/06/21 10:02:54.857, True, 1.326, 0.135271
2023/06/21 10:02:55.353, True, 1.686, 0.135805
2023/06/21 10:02:55.857, True, 1.326, 0.134127
2023/06/21 10:02:56.361, True, 1.658, 0.133516
2023/06/21 10:02:56.857, True, 1.685, 0.133135
2023/06/21 10:02:57.361, True, 1.660, 0.133669
2023/06/21 10:02:57.857, True, 1.682, 0.133364
2023/06/21 10:02:58.361, True, 1.660, 0.135348
2023/06/21 10:02:58.866, True, 1.326, 0.136034
2023/06/21 10:02:59.361, True, 1.684, 0.136187
2023/06/21 10:02:59.865, True, 1.327, 0.134432
2023/06/21 10:03:00.369, True, 1.658, 0.133822
2023/06/21 10:03:00.866, True, 1.687, 0.135576
2023/06/21 10:03:01.369, True, 1.656, 0.135576
2023/06/21 10:03:01.873, True, 1.327, 0.134127
2023/06/21 10:03:02.369, True, 1.684, 0.133364
2023/06/21 10:03:02.874, True, 1.659, 0.135119
2023/06/21 10:03:03.378, True, 1.657, 0.133288
2023/06/21 10:03:03.873, True, 1.351, 0.132830
2023/06/21 10:03:04.377, True, 1.658, 0.135119
2023/06/21 10:03:04.881, True, 1.658, 0.136034
2023/06/21 10:03:05.386, True, 1.657, 0.135271
2023/06/21 10:03:05.882, True, 1.686, 0.134356
2023/06/21 10:03:06.386, True, 1.326, 0.132906
2023/06/21 10:03:06.890, True, 1.655, 0.135119
2023/06/21 10:03:07.393, True, 1.660, 0.133898
2023/06/21 10:03:07.890, True, 1.684, 0.133440
2023/06/21 10:03:08.393, True, 1.660, 0.134737
2023/06/21 10:03:08.898, True, 1.655, 0.133364
2023/06/21 10:03:09.393, True, 1.686, 0.135424
2023/06/21 10:03:09.898, True, 1.327, 0.134051
2023/06/21 10:03:10.401, True, 1.656, 0.135271
2023/06/21 10:03:10.897, True, 1.688, 0.134051
2023/06/21 10:03:11.401, True, 1.656, 0.134432
2023/06/21 10:03:11.905, True, 1.658, 0.133516
2023/06/21 10:03:12.401, True, 1.685, 0.135882
2023/06/21 10:03:12.906, True, 1.326, 0.134203
2023/06/21 10:03:13.409, True, 1.658, 0.134356
2023/06/21 10:03:13.905, True, 1.685, 0.134585
2023/06/21 10:03:14.409, True, 1.658, 0.131228
2023/06/21 10:03:14.906, True, 1.686, 0.132906
2023/06/21 10:03:15.409, True, 1.326, 0.132753
2023/06/21 10:03:15.913, True, 1.658, 0.131609
2023/06/21 10:03:16.417, True, 1.658, 0.132601
2023/06/21 10:03:16.913, True, 1.350, 0.132677
2023/06/21 10:03:17.418, True, 1.656, 0.130770
2023/06/21 10:03:17.921, True, 1.658, 0.132677
2023/06/21 10:03:18.417, True, 1.685, 0.133288
2023/06/21 10:03:18.922, True, 1.658, 0.132296
2023/06/21 10:03:19.425, True, 1.658, 0.132448
2023/06/21 10:03:19.921, True, 1.686, 0.132982
2023/06/21 10:03:20.426, True, 1.325, 0.133516
2023/06/21 10:03:20.921, True, 1.685, 0.133822
2023/06/21 10:03:21.425, True, 1.660, 0.132753
2023/06/21 10:03:21.929, True, 1.657, 0.132906
2023/06/21 10:03:22.433, True, 1.658, 0.132830
2023/06/21 10:03:22.929, True, 1.685, 0.136034
2023/06/21 10:03:23.433, True, 1.658, 0.135576
2023/06/21 10:03:23.929, True, 1.348, 0.131304
2023/06/21 10:03:24.433, True, 1.658, 0.134279
2023/06/21 10:03:24.937, True, 1.659, 0.133440
2023/06/21 10:03:25.433, True, 1.685, 0.134508
2023/06/21 10:03:25.937, True, 1.658, 0.131228
2023/06/21 10:03:26.441, True, 1.657, 0.134508
2023/06/21 10:03:26.937, True, 1.685, 0.131838
2023/06/21 10:03:27.441, True, 1.326, 0.132830
2023/06/21 10:03:27.945, True, 1.658, 0.133440
2023/06/21 10:03:28.442, True, 1.685, 0.133898
2023/06/21 10:03:28.945, True, 1.658, 0.132067
2023/06/21 10:03:29.450, True, 1.658, 0.132906
2023/06/21 10:03:29.945, True, 1.684, 0.134127
2023/06/21 10:03:30.449, True, 1.327, 0.133669
2023/06/21 10:03:30.953, True, 1.658, 0.132143
2023/06/21 10:03:31.449, True, 1.685, 0.134813
2023/06/21 10:03:31.953, True, 1.658, 0.132296
2023/06/21 10:03:32.449, True, 1.685, 0.135348
2023/06/21 10:03:32.954, True, 1.658, 0.133364
2023/06/21 10:03:33.457, True, 1.658, 0.131991
2023/06/21 10:03:33.953, True, 1.348, 0.133745
2023/06/21 10:03:34.457, True, 1.660, 0.132830
2023/06/21 10:03:34.961, True, 1.656, 0.131914
2023/06/21 10:03:35.457, True, 1.684, 0.133059
2023/06/21 10:03:35.961, True, 1.658, 0.133288
2023/06/21 10:03:36.457, True, 1.685, 0.133440
2023/06/21 10:03:36.962, True, 1.658, 0.130846
2023/06/21 10:03:37.465, True, 1.326, 0.132601
2023/06/21 10:03:37.961, True, 1.685, 0.133516
2023/06/21 10:03:38.465, True, 1.658, 0.134127
2023/06/21 10:03:38.969, True, 1.658, 0.133669
2023/06/21 10:03:39.465, True, 1.685, 0.130388
2023/06/21 10:03:39.969, True, 1.326, 0.133211
2023/06/21 10:03:40.473, True, 1.658, 0.132448
2023/06/21 10:03:40.969, True, 1.687, 0.131838
2023/06/21 10:03:41.473, True, 1.655, 0.132067
2023/06/21 10:03:41.977, True, 1.658, 0.133364
2023/06/21 10:03:42.473, True, 1.685, 0.132219
2023/06/21 10:03:42.977, True, 1.658, 0.131151
2023/06/21 10:03:43.481, True, 1.658, 0.133288
2023/06/21 10:03:43.977, True, 1.685, 0.133593
2023/06/21 10:03:44.481, True, 1.658, 0.133669
2023/06/21 10:03:44.985, True, 1.658, 0.132296
2023/06/21 10:03:45.481, True, 1.348, 0.134890
2023/06/21 10:03:45.985, True, 1.659, 0.133364
2023/06/21 10:03:46.489, True, 1.325, 0.132601
2023/06/21 10:03:46.985, True, 1.348, 0.131685
2023/06/21 10:03:47.489, True, 1.658, 0.132372
2023/06/21 10:03:47.993, True, 1.658, 0.132372
2023/06/21 10:03:48.489, True, 1.685, 0.133211
2023/06/21 10:03:48.993, True, 1.658, 0.130617
2023/06/21 10:03:49.497, True, 1.326, 0.131762
2023/06/21 10:03:49.993, True, 1.685, 0.132067
2023/06/21 10:03:50.497, True, 1.658, 0.131762
2023/06/21 10:03:51.001, True, 1.658, 0.132219
2023/06/21 10:03:51.497, True, 1.685, 0.133135
2023/06/21 10:03:52.001, True, 1.658, 0.130846
2023/06/21 10:03:52.505, True, 1.658, 0.130465
2023/06/21 10:03:53.001, True, 1.685, 0.133898
2023/06/21 10:03:53.505, True, 1.658, 0.131304
2023/06/21 10:03:54.009, True, 1.658, 0.132372
2023/06/21 10:03:54.505, True, 1.348, 0.134661
2023/06/21 10:03:55.009, True, 1.658, 0.131228
2023/06/21 10:03:55.505, True, 1.684, 0.132296
2023/06/21 10:03:56.009, True, 1.658, 0.131380
2023/06/21 10:03:56.513, True, 1.658, 0.131838
2023/06/21 10:03:57.009, True, 1.685, 0.133211
2023/06/21 10:03:57.513, True, 1.659, 0.133211
2023/06/21 10:03:58.017, True, 1.657, 0.131914
2023/06/21 10:03:58.513, True, 1.349, 0.131762
2023/06/21 10:03:59.017, True, 1.657, 0.131838
2023/06/21 10:03:59.521, True, 1.658, 0.132982
2023/06/21 10:04:00.017, True, 1.685, 0.132372
2023/06/21 10:04:00.521, True, 1.658, 0.133516
2023/06/21 10:04:01.025, True, 1.658, 0.130388
2023/06/21 10:04:01.521, True, 1.349, 0.131304
2023/06/21 10:04:02.025, True, 1.658, 0.130159
2023/06/21 10:04:02.529, True, 1.659, 0.132525
2023/06/21 10:04:03.025, True, 1.682, 0.131533
2023/06/21 10:04:03.529, True, 1.326, 0.132601
2023/06/21 10:04:04.033, True, 1.658, 0.131609
2023/06/21 10:04:04.529, True, 1.685, 0.131762
2023/06/21 10:04:05.033, True, 1.658, 0.132372
2023/06/21 10:04:05.529, True, 1.348, 0.130617
2023/06/21 10:04:06.033, True, 1.658, 0.131456
2023/06/21 10:04:06.537, True, 1.658, 0.131533
2023/06/21 10:04:07.033, True, 1.685, 0.132753
2023/06/21 10:04:07.537, True, 1.658, 0.130236
2023/06/21 10:04:08.041, True, 1.326, 0.131991
2023/06/21 10:04:08.545, True, 1.660, 0.131151
2023/06/21 10:04:09.041, True, 1.682, 0.130694
2023/06/21 10:04:09.545, True, 1.658, 0.132753
2023/06/21 10:04:10.041, True, 1.348, 0.132296
2023/06/21 10:04:10.545, True, 1.660, 0.132753
2023/06/21 10:04:11.049, True, 1.655, 0.130159
2023/06/21 10:04:11.553, True, 1.660, 0.129320